(139411) = 2001 OD15

Discovered at Palomar on 2001-07-18 by NEAT.

Orbit

Orbit type: Main Belt

Note: WebGL enabled browser required.

epoch2023-02-25.0
epoch JD2460000.5
perihelion date2020-09-21.35760
perihelion JD2459113.85760
argument of perihelion (°)298.74893
ascending node (°)24.60152
inclination (°)6.67207
eccentricity0.1519647
perihelion distance (AU)2.0674950
Tisserand w.r.t. Jupiter3.5
ΔV w.r.t. Earth (km/sec)9.2
semimajor axis (AU)2.4379822
mean anomaly (°)229.56545
mean daily motion (°/day)0.25891550
aphelion distance (AU)2.808
period (years)3.81
P-vector [x]0.79982961
P-vector [y]-0.50218959
P-vector [z]-0.32875251
Q-vector [x]0.59827504
Q-vector [y]0.71115112
Q-vector [z]0.36923036
absolute magnitude16.2
phase slope0.15
uncertainty0
referenceMPO 745323
observations used532
oppositions16
arc length (days)9944
first opposition used1996
last opposition used2023
residual rms (arc-secs)0.80
perturbers coarse indicatorM-v
perturbers precise indicator003Ek
first observation date used1996-02-18.0
last observation date used2023-05-11.0
computer nameMPCLINUX
JD of orbit computation2456639.767704
perihelion JD uncertainty (days)9.9060E-05
argument of perihelion uncertainty (°)4.2894E-05
ascending node uncertainty (°)3.4215E-05
inclination uncertainty (°)8.1865E-06
eccentricity uncertainty 4.9470E-08
perihelion distance uncertainty (AU)1.1539E-07
Minimum Orbit Intersection Distances (in AU)
for orbit epoch: 2460000.5, reference: E2023-JB1
Mercury1.64585
Venus1.34064
Earth1.06432
Mars0.69305
Jupiter2.51929
Saturn6.3798
Uranus15.6638
Neptune27.4775

Observations

546 total observations over interval: 1996 02 18.37988 – 2023 05 11.303580
These data are available for download (format description).

Date (UT) J2000 RA J2000 Dec Magn Location Ref
1996 02 18.37988 10 42 29.50 +16 52 52.3   691 – Steward Observatory, Kitt Peak-Spacewatch MPS 178248
1996 02 18.40167 10 42 28.19 +16 52 58.6 20.1 V 691 – Steward Observatory, Kitt Peak-Spacewatch MPS 178248
1996 02 18.42345 10 42 26.88 +16 53 05.1   691 – Steward Observatory, Kitt Peak-Spacewatch MPS 178248
2001 06 27.36376 21 23 55.05 -27 25 42.5 18.8   644 – Palomar Mountain/NEAT MPS 34453
2001 06 27.37436 21 23 54.97 -27 25 45.0 19.0   644 – Palomar Mountain/NEAT MPS 34453
2001 06 27.38478 21 23 54.90 -27 25 48.1 19.1   644 – Palomar Mountain/NEAT MPS 34453
2001 07 18.39117 21 14 36.82 -29 08 27.5 18.4   644 – Palomar Mountain/NEAT MPS 32462
2001 07 18.40153 21 14 36.30 -29 08 30.7 18.2   644 – Palomar Mountain/NEAT MPS 32462
2001 07 18.41259 21 14 35.75 -29 08 33.6 18.0   644 – Palomar Mountain/NEAT MPS 32462
2001 07 22.28327 21 11 24.72 -29 26 21.8 18.5   644 – Palomar Mountain/NEAT MPS 32462
2001 07 22.29385 21 11 24.17 -29 26 24.7 18.5   644 – Palomar Mountain/NEAT MPS 32462
2001 07 22.30458 21 11 23.58 -29 26 27.5 18.3   644 – Palomar Mountain/NEAT MPS 32462
2001 08 24.20934 20 40 47.48 -30 08 47.8 19.0   644 – Palomar Mountain/NEAT MPS 34453
2001 08 24.22039 20 40 46.98 -30 08 46.2 18.6   644 – Palomar Mountain/NEAT MPS 34453
2001 08 24.23241 20 40 46.46 -30 08 44.8 18.7   644 – Palomar Mountain/NEAT MPS 34453
2001 09 11.19728 20 33 39.67 -28 54 08.0 19.3   704 – Lincoln Laboratory ETS, New Mexico MPS 34453
2001 09 11.21239 20 33 39.64 -28 54 02.0 19.5   704 – Lincoln Laboratory ETS, New Mexico MPS 34453
2001 09 11.22734 20 33 39.52 -28 53 57.1 19.5   704 – Lincoln Laboratory ETS, New Mexico MPS 34453
2004 03 19.34042 12 54 45.76 -02 34 32.2 19.4   704 – Lincoln Laboratory ETS, New Mexico MPS 102986
2004 03 19.35118 12 54 45.23 -02 34 31.4 20.0   704 – Lincoln Laboratory ETS, New Mexico MPS 102986
2004 03 19.36247 12 54 44.44 -02 34 27.5 20.0   704 – Lincoln Laboratory ETS, New Mexico MPS 102986
2004 03 19.37345 12 54 43.92 -02 34 25.1 19.8   704 – Lincoln Laboratory ETS, New Mexico MPS 102986
2004 03 19.38415 12 54 43.29 -02 34 22.5 20.3   704 – Lincoln Laboratory ETS, New Mexico MPS 102986
2004 03 24.26555 12 50 15.08 -02 16 18.8 19.9 R 699 – Lowell Observatory-LONEOS MPS 102986
2004 03 24.28583 12 50 13.91 -02 16 13.6   699 – Lowell Observatory-LONEOS MPS 102986
2004 03 24.30609 12 50 12.75 -02 16 10.1   699 – Lowell Observatory-LONEOS MPS 102986
2004 03 24.32634 12 50 11.56 -02 16 04.3   699 – Lowell Observatory-LONEOS MPS 102986
2004 03 28.33248 12 46 20.31 -02 00 45.2 19.2   704 – Lincoln Laboratory ETS, New Mexico MPS 102986
2004 03 28.34297 12 46 19.73 -02 00 41.8 19.8   704 – Lincoln Laboratory ETS, New Mexico MPS 102986
2004 03 28.35315 12 46 19.11 -02 00 40.4 19.6   704 – Lincoln Laboratory ETS, New Mexico MPS 102986
2004 03 28.36333 12 46 18.44 -02 00 38.9 20.0   704 – Lincoln Laboratory ETS, New Mexico MPS 102986
2004 03 28.37352 12 46 17.73 -02 00 34.1 20.0   704 – Lincoln Laboratory ETS, New Mexico MPS 102986
2004 03 29.29521 12 45 23.91 -01 57 02.7 19.8 V 691 – Steward Observatory, Kitt Peak-Spacewatch MPS 102986
2004 03 29.32973 12 45 21.84 -01 56 54.9 19.9 V 691 – Steward Observatory, Kitt Peak-Spacewatch MPS 102986
2004 03 29.35809 12 45 20.11 -01 56 48.4 19.6 V 691 – Steward Observatory, Kitt Peak-Spacewatch MPS 102986
2004 04 14.16530 12 30 00.90 -01 00 37.5 20.1 V 691 – Steward Observatory, Kitt Peak-Spacewatch MPS 104209
2004 04 14.19493 12 29 59.25 -01 00 32.2 20.2 V 691 – Steward Observatory, Kitt Peak-Spacewatch MPS 104209
2004 04 14.22596 12 29 57.47 -01 00 26.5 19.9 V 691 – Steward Observatory, Kitt Peak-Spacewatch MPS 104209
2004 04 23.15239 12 22 24.51 -00 37 30.6 20.2 V 691 – Steward Observatory, Kitt Peak-Spacewatch MPS 106131
2004 04 23.18494 12 22 22.96 -00 37 26.4 20.4 V 691 – Steward Observatory, Kitt Peak-Spacewatch MPS 106131
2004 04 23.21286 12 22 21.62 -00 37 23.2 20.4 V 691 – Steward Observatory, Kitt Peak-Spacewatch MPS 106131
2005 08 27.37806 23 43 32.04 -10 56 02.0 18.5   644 – Palomar Mountain/NEAT MPS 140061
2005 08 27.40315 23 43 30.78 -10 56 06.4 18.4   644 – Palomar Mountain/NEAT MPS 140061
2005 08 27.42978 23 43 29.42 -10 56 11.0 18.6   644 – Palomar Mountain/NEAT MPS 140061
2005 09 13.22271 23 27 55.08 -11 37 04.1 18.4 V 703 – Catalina Sky Survey MPS 141604
2005 09 13.23082 23 27 54.57 -11 37 04.3 18.3 V 703 – Catalina Sky Survey MPS 141604
2005 09 13.23897 23 27 54.03 -11 37 05.3 18.3 V 703 – Catalina Sky Survey MPS 141604
2005 09 13.24704 23 27 53.56 -11 37 06.3 18.7 V 703 – Catalina Sky Survey MPS 141604
2005 09 24.22175 23 17 31.35 -11 46 37.2 17.7 R 644 – Palomar Mountain/NEAT MPS 143482
2005 09 24.24283 23 17 30.11 -11 46 37.3 18.6 R 644 – Palomar Mountain/NEAT MPS 143482
2005 09 24.26449 23 17 28.92 -11 46 37.2 18.1 R 644 – Palomar Mountain/NEAT MPS 143482
2005 09 25.23550 23 16 38.31 -11 46 30.9 18.8 V 703 – Catalina Sky Survey MPS 142503
2005 09 25.24193 23 16 37.95 -11 46 30.1 18.5 V 703 – Catalina Sky Survey MPS 142503
2005 09 25.24838 23 16 37.56 -11 46 30.3 18.3 V 703 – Catalina Sky Survey MPS 142503
2005 09 25.25478 23 16 37.23 -11 46 30.1 18.5 V 703 – Catalina Sky Survey MPS 142503
2005 09 27.25954 23 14 56.17 -11 45 43.4 18.6   704 – Lincoln Laboratory ETS, New Mexico MPS 142503
2005 09 27.27000 23 14 55.57 -11 45 43.1 18.4   704 – Lincoln Laboratory ETS, New Mexico MPS 142503
2005 09 27.28044 23 14 55.02 -11 45 43.2 18.4   704 – Lincoln Laboratory ETS, New Mexico MPS 142503
2005 09 27.29088 23 14 54.47 -11 45 42.7 18.3   704 – Lincoln Laboratory ETS, New Mexico MPS 142503
2005 09 27.30134 23 14 53.95 -11 45 42.3 18.5   704 – Lincoln Laboratory ETS, New Mexico MPS 142503
2005 10 03.26994 23 10 24.96 -11 38 58.9 18.6 V 703 – Catalina Sky Survey MPS 143482
2005 10 03.27645 23 10 24.67 -11 38 58.9 18.8 V 703 – Catalina Sky Survey MPS 143482
2005 10 03.28294 23 10 24.42 -11 38 58.5 18.8 V 703 – Catalina Sky Survey MPS 143482
2005 10 03.28947 23 10 24.16 -11 38 57.5 18.6 V 703 – Catalina Sky Survey MPS 143482
2005 10 10.20249 23 06 24.30 -11 22 49.6 18.8 V 703 – Catalina Sky Survey MPS 143482
2005 10 10.21171 23 06 24.08 -11 22 47.4 18.9 V 703 – Catalina Sky Survey MPS 143482
2005 10 10.22094 23 06 23.76 -11 22 46.1 18.4 V 703 – Catalina Sky Survey MPS 143482
2005 10 10.23017 23 06 23.40 -11 22 44.6 18.8 V 703 – Catalina Sky Survey MPS 143482
2005 10 26.14291 23 02 50.60 -10 13 42.1 19.7   704 – Lincoln Laboratory ETS, New Mexico MPS 145844
2005 10 26.15468 23 02 50.56 -10 13 39.3 19.8   704 – Lincoln Laboratory ETS, New Mexico MPS 145844
2005 10 26.17786 23 02 50.63 -10 13 32.0 19.7   704 – Lincoln Laboratory ETS, New Mexico MPS 145844
2005 10 31.16699 23 03 22.80 -09 43 50.0 19.2   704 – Lincoln Laboratory ETS, New Mexico MPS 147242
2005 10 31.17895 23 03 22.88 -09 43 44.3 19.6   704 – Lincoln Laboratory ETS, New Mexico MPS 147242
2005 10 31.19089 23 03 23.05 -09 43 39.3 19.8   704 – Lincoln Laboratory ETS, New Mexico MPS 147242
2006 12 15.48578 08 39 37.66 +28 11 14.6   691 – Steward Observatory, Kitt Peak-Spacewatch MPS 195278
2006 12 15.50317 08 39 37.15 +28 11 19.2   691 – Steward Observatory, Kitt Peak-Spacewatch MPS 195278
2006 12 15.52056 08 39 36.64 +28 11 23.9   691 – Steward Observatory, Kitt Peak-Spacewatch MPS 195278
2008 02 02.52156 14 14 28.46 -11 55 46.4 21.1 V G96 – Mt. Lemmon Survey MPS 237205
2008 02 02.53210 14 14 28.86 -11 55 49.4 20.9 V G96 – Mt. Lemmon Survey MPS 237205
2008 02 02.53878 14 14 29.18 -11 55 51.7 22.1 V G96 – Mt. Lemmon Survey MPS 237205
2008 02 02.54544 14 14 29.47 -11 55 52.9 21.7 V G96 – Mt. Lemmon Survey MPS 237205
2008 02 13.44994 14 20 58.84 -12 43 42.1 20.9 V G96 – Mt. Lemmon Survey MPS 238956
2008 02 13.45501 14 20 58.99 -12 43 43.2 20.2 V G96 – Mt. Lemmon Survey MPS 238956
2008 02 13.46021 14 20 59.13 -12 43 44.1 20.8 V G96 – Mt. Lemmon Survey MPS 238956
2008 02 13.46532 14 20 59.28 -12 43 45.4 20.4 V G96 – Mt. Lemmon Survey MPS 238956
2008 03 30.29560 14 16 08.68 -13 56 11.2 19.8 V 691 – Steward Observatory, Kitt Peak-Spacewatch MPS 245522
2008 03 30.31321 14 16 07.89 -13 56 10.0 19.7 V 691 – Steward Observatory, Kitt Peak-Spacewatch MPS 245522
